Location: Unspecified
(0.0000°N, 0.0000°E)
Time: 09:53:08
(UTC+00:00)

Vanguard 3 - Pass Details

Date: 12 December 2017
Orbit: 508 x 3264 km, 33.3° (Epoch: 24 June)

Event Time Altitude Azimuth Distance (km) Brightness Sun altitude
Rises 20:29:17 0° 305° (NW) 4,023 11.0 -35.2°
Reaches altitude 10° 20:31:31 10° 304° (NW) 3,326 10.5 -35.7°
Maximum altitude 20:40:24 87° 216° (SW) 1,936 8.8 -37.6°
Drops below altitude 10° 20:56:33 10° 127° (SE) 5,683 11.2 -41.1°
Sets 21:01:40 0° 126° (SE) 6,968 11.7 -42.2°
